"datetime","temp","dp","rain_mm","uv","solar","mb","wind_mph","gust_mph","windchill","rh"
"2021-01-28 00:00:00",8.8,8.7,0.0,0.0,0,1005.2,0,1,"",99
"2021-01-28 00:01:00",8.8,8.7,0.0,0.0,0,1005.2,0,1,"",99
"2021-01-28 00:02:00",8.8,8.7,0.0,0.0,0,1005.2,0,1,"",99
"2021-01-28 00:03:00",8.8,8.7,0.0,0.0,0,1005.2,1,2,"",99
"2021-01-28 00:04:00",8.8,8.7,0.0,0.0,0,1005.1,1,2,"",99
"2021-01-28 00:05:00",8.8,8.7,0.0,0.0,0,1005.1,0,1,"",99
"2021-01-28 00:06:00",8.8,8.7,0.0,0.0,0,1005.1,0,1,"",99
"2021-01-28 00:07:00",8.8,8.7,0.2,0.0,0,1005.1,0,1,"",99
"2021-01-28 00:08:00",8.8,8.7,0.2,0.0,0,1005.1,0,1,"",99
"2021-01-28 00:09:00",8.8,8.7,0.2,0.0,0,1005.0,0,1,"",99
"2021-01-28 00:10:00",8.8,8.7,0.2,0.0,0,1005.0,0,1,"",99
"2021-01-28 00:11:00",8.8,8.7,0.2,0.0,0,1004.9,0,1,"",99
"2021-01-28 00:12:00",8.8,8.7,0.2,0.0,0,1004.9,0,1,"",99
"2021-01-28 00:13:00",8.8,8.7,0.2,0.0,0,1004.9,1,1,"",99
"2021-01-28 00:14:00",8.8,8.7,0.2,0.0,0,1004.9,1,2,"",99
"2021-01-28 00:15:00",8.8,8.7,0.2,0.0,0,1004.8,0,2,"",99
"2021-01-28 00:16:00",8.7,8.6,0.4,0.0,0,1004.7,1,2,"",99
"2021-01-28 00:17:00",8.8,8.7,0.4,0.0,0,1004.6,1,2,"",99
"2021-01-28 00:18:00",8.8,8.7,0.4,0.0,0,1004.7,1,2,"",99
"2021-01-28 00:19:00",8.7,8.6,0.4,0.0,0,1004.6,1,2,"",99
"2021-01-28 00:20:00",8.7,8.6,0.4,0.0,0,1004.6,0,1,"",99
"2021-01-28 00:21:00",8.7,8.6,0.4,0.0,0,1004.6,1,3,"",99
"2021-01-28 00:22:00",8.8,8.7,0.4,0.0,0,1004.6,2,3,"",99
"2021-01-28 00:23:00",8.8,8.7,0.4,0.0,0,1004.5,1,3,"",99
"2021-01-28 00:24:00",8.8,8.7,0.4,0.0,0,1004.5,1,2,"",99
"2021-01-28 00:25:00",8.8,8.7,0.4,0.0,0,1004.4,1,3,"",99
"2021-01-28 00:26:00",8.8,8.7,0.4,0.0,0,1004.4,1,2,"",99
"2021-01-28 00:27:00",8.8,8.7,0.6,0.0,0,1004.3,1,2,"",99
"2021-01-28 00:28:00",8.8,8.7,0.6,0.0,0,1004.3,1,2,"",99
"2021-01-28 00:29:00",8.8,8.7,0.6,0.0,0,1004.3,1,2,"",99
"2021-01-28 00:30:00",8.8,8.7,0.6,0.0,0,1004.3,1,2,"",99
"2021-01-28 00:31:00",8.8,8.7,0.6,0.0,0,1004.2,1,2,"",99
"2021-01-28 00:32:00",8.8,8.7,0.6,0.0,0,1004.2,1,2,"",99
"2021-01-28 00:33:00",8.8,8.7,0.6,0.0,0,1004.2,2,2,"",99
"2021-01-28 00:34:00",8.8,8.7,0.6,0.0,0,1004.2,2,4,8.0,99
"2021-01-28 00:35:00",8.8,8.7,0.6,0.0,0,1004.2,0,2,"",99
"2021-01-28 00:36:00",8.8,8.7,0.6,0.0,0,1004.2,1,2,"",99
"2021-01-28 00:37:00",8.8,8.7,0.6,0.0,0,1004.1,1,3,"",99
"2021-01-28 00:38:00",8.8,8.7,0.6,0.0,0,1004.2,1,2,"",99
"2021-01-28 00:39:00",8.8,8.7,0.6,0.0,0,1004.1,1,2,"",99
"2021-01-28 00:40:00",8.8,8.7,0.6,0.0,0,1004.1,2,3,"",99
"2021-01-28 00:41:00",8.8,8.7,0.6,0.0,0,1004.0,1,3,"",99
"2021-01-28 00:42:00",8.8,8.7,0.6,0.0,0,1004.0,1,2,"",99
"2021-01-28 00:43:00",8.8,8.7,0.6,0.0,0,1004.0,1,2,"",99
"2021-01-28 00:44:00",8.8,8.7,0.6,0.0,0,1004.0,1,2,"",99
"2021-01-28 00:45:00",8.9,8.8,0.6,0.0,0,1004.0,2,3,"",99
"2021-01-28 00:46:00",8.8,8.7,0.6,0.0,0,1004.0,2,4,8.0,99
"2021-01-28 00:47:00",8.8,8.7,0.6,0.0,0,1004.0,2,2,"",99
"2021-01-28 00:48:00",8.8,8.7,0.6,0.0,0,1003.9,1,2,"",99
"2021-01-28 00:49:00",8.9,8.8,0.6,0.0,0,1003.9,1,3,"",99
"2021-01-28 00:50:00",8.8,8.7,0.6,0.0,0,1003.9,3,4,8.0,99
"2021-01-28 00:51:00",8.9,8.8,0.6,0.0,0,1003.8,2,3,"",99
"2021-01-28 00:52:00",8.9,8.8,0.6,0.0,0,1003.8,2,3,"",99
"2021-01-28 00:53:00",8.9,8.8,0.8,0.0,0,1003.8,2,2,"",99
"2021-01-28 00:54:00",8.9,8.8,0.8,0.0,0,1003.7,1,2,"",99
"2021-01-28 00:55:00",8.9,8.8,0.8,0.0,0,1003.8,2,4,8.0,99
"2021-01-28 00:56:00",8.9,8.8,0.8,0.0,0,1003.8,2,3,"",99
"2021-01-28 00:57:00",8.8,8.7,0.8,0.0,0,1003.8,1,2,"",99
"2021-01-28 00:58:00",8.9,8.8,0.8,0.0,0,1003.8,1,3,"",99
"2021-01-28 00:59:00",8.9,8.8,0.8,0.0,0,1003.8,2,3,"",99
"2021-01-28 01:00:00",8.9,8.8,0.8,0.0,0,1003.9,2,3,"",99
"2021-01-28 01:01:00",8.8,8.7,0.8,0.0,0,1003.9,1,3,"",99
"2021-01-28 01:02:00",8.9,8.8,1.0,0.0,0,1003.9,1,2,"",99
"2021-01-28 01:03:00",8.8,8.7,1.0,0.0,0,1003.9,2,3,"",99
"2021-01-28 01:04:00",8.9,8.8,1.0,0.0,0,1003.8,1,3,"",99
"2021-01-28 01:05:00",8.8,8.7,1.0,0.0,0,1003.8,1,2,"",99
"2021-01-28 01:06:00",8.9,8.8,1.0,0.0,0,1003.8,1,1,"",99
"2021-01-28 01:07:00",8.9,8.8,1.0,0.0,0,1003.7,2,4,8.1,99
"2021-01-28 01:08:00",8.9,8.8,1.0,0.0,0,1003.7,1,2,"",99
"2021-01-28 01:09:00",8.9,8.8,1.0,0.0,0,1003.7,2,2,"",99
"2021-01-28 01:10:00",8.9,8.8,1.0,0.0,0,1003.7,1,3,"",99
"2021-01-28 01:11:00",8.9,8.8,1.0,0.0,0,1003.7,2,3,"",99
"2021-01-28 01:12:00",8.8,8.7,1.2,0.0,0,1003.6,0,1,"",99
"2021-01-28 01:13:00",8.8,8.7,1.2,0.0,0,1003.6,0,1,"",99
"2021-01-28 01:14:00",8.9,8.8,1.2,0.0,0,1003.5,1,3,"",99
"2021-01-28 01:15:00",8.9,8.8,1.2,0.0,0,1003.5,1,3,"",99
"2021-01-28 01:16:00",8.9,8.8,1.2,0.0,0,1003.6,1,2,"",99
"2021-01-28 01:17:00",8.8,8.7,1.2,0.0,0,1003.6,2,3,"",99
"2021-01-28 01:18:00",8.9,8.8,1.2,0.0,0,1003.7,1,3,"",99
"2021-01-28 01:19:00",8.9,8.8,1.2,0.0,0,1003.7,1,2,"",99
"2021-01-28 01:20:00",8.9,8.8,1.2,0.0,0,1003.7,1,2,"",99
"2021-01-28 01:21:00",8.9,8.8,1.2,0.0,0,1003.7,1,2,"",99
"2021-01-28 01:22:00",8.9,8.8,1.2,0.0,0,1003.7,1,2,"",99
"2021-01-28 01:23:00",8.8,8.7,1.2,0.0,0,1003.7,1,2,"",99
"2021-01-28 01:24:00",8.8,8.7,1.2,0.0,0,1003.7,1,3,"",99
"2021-01-28 01:25:00",8.9,8.8,1.2,0.0,0,1003.6,1,2,"",99
"2021-01-28 01:26:00",8.8,8.7,1.2,0.0,0,1003.7,1,2,"",99
"2021-01-28 01:27:00",8.8,8.7,1.2,0.0,0,1003.8,1,2,"",99
"2021-01-28 01:28:00",8.8,8.7,1.2,0.0,0,1003.7,1,2,"",99
"2021-01-28 01:29:00",8.8,8.7,1.2,0.0,0,1003.6,1,2,"",99
"2021-01-28 01:30:00",8.8,8.7,1.2,0.0,0,1003.6,2,3,"",99
"2021-01-28 01:31:00",8.8,8.7,1.2,0.0,0,1003.6,1,2,"",99
"2021-01-28 01:32:00",8.8,8.7,1.2,0.0,0,1003.6,0,2,"",99
"2021-01-28 01:33:00",8.8,8.7,1.2,0.0,0,1003.5,0,1,"",99
"2021-01-28 01:34:00",8.8,8.7,1.2,0.0,0,1003.5,0,1,"",99
"2021-01-28 01:35:00",8.8,8.7,1.2,0.0,0,1003.5,1,2,"",99
"2021-01-28 01:36:00",8.8,8.7,1.2,0.0,0,1003.5,1,2,"",99
"2021-01-28 01:37:00",8.8,8.7,1.2,0.0,0,1003.5,2,4,8.0,99
"2021-01-28 01:38:00",8.9,8.8,1.2,0.0,0,1003.5,2,4,8.0,99
"2021-01-28 01:39:00",8.8,8.7,1.2,0.0,0,1003.4,1,2,"",99
"2021-01-28 01:40:00",8.8,8.7,1.2,0.0,0,1003.5,2,3,"",99
"2021-01-28 01:41:00",8.8,8.7,1.2,0.0,0,1003.5,2,3,"",99
"2021-01-28 01:42:00",8.8,8.7,1.2,0.0,0,1003.5,1,3,"",99
"2021-01-28 01:43:00",8.8,8.7,1.2,0.0,0,1003.4,2,3,"",99
"2021-01-28 01:44:00",8.9,8.8,1.2,0.0,0,1003.4,1,2,"",99
"2021-01-28 01:45:00",8.9,8.8,1.2,0.0,0,1003.4,1,3,"",99
"2021-01-28 01:46:00",8.9,8.8,1.2,0.0,0,1003.4,0,1,"",99
"2021-01-28 01:47:00",8.9,8.8,1.2,0.0,0,1003.3,1,2,"",99
"2021-01-28 01:48:00",8.9,8.8,1.2,0.0,0,1003.4,1,3,"",99
"2021-01-28 01:49:00",8.9,8.8,1.2,0.0,0,1003.3,2,3,"",99
"2021-01-28 01:50:00",8.9,8.8,1.2,0.0,0,1003.4,1,2,"",99
"2021-01-28 01:51:00",8.9,8.8,1.2,0.0,0,1003.3,1,3,"",99
"2021-01-28 01:52:00",8.9,8.8,1.2,0.0,0,1003.3,1,3,"",99
"2021-01-28 01:53:00",8.9,8.8,1.2,0.0,0,1003.3,1,3,"",99
"2021-01-28 01:54:00",8.9,8.8,1.2,0.0,0,1003.2,1,2,"",99
"2021-01-28 01:55:00",8.9,8.8,1.2,0.0,0,1003.2,1,3,"",99
"2021-01-28 01:56:00",8.9,8.8,1.2,0.0,0,1003.1,1,2,"",99
"2021-01-28 01:57:00",8.9,8.8,1.2,0.0,0,1003.2,2,3,"",99
"2021-01-28 01:58:00",9.0,8.9,1.2,0.0,0,1003.2,2,4,8.1,99
"2021-01-28 01:59:00",9.0,8.9,1.2,0.0,0,1003.1,2,4,8.2,99
"2021-01-28 02:00:00",9.0,8.9,1.2,0.0,0,1003.0,1,3,"",99
"2021-01-28 02:01:00",9.1,9.0,1.2,0.0,0,1003.0,1,3,"",99
"2021-01-28 02:02:00",9.1,9.0,1.4,0.0,0,1003.0,2,2,"",99
"2021-01-28 02:03:00",9.1,9.0,1.4,0.0,0,1003.0,2,4,8.3,99
"2021-01-28 02:04:00",9.1,9.0,1.4,0.0,0,1002.9,2,3,"",99
"2021-01-28 02:05:00",9.1,9.0,1.4,0.0,0,1002.9,2,4,8.3,99
"2021-01-28 02:06:00",9.1,9.0,1.4,0.0,0,1002.9,2,3,"",99
"2021-01-28 02:07:00",9.1,9.0,1.4,0.0,0,1002.8,2,4,8.3,99
"2021-01-28 02:08:00",9.2,9.1,1.4,0.0,0,1002.8,2,4,8.4,99
"2021-01-28 02:09:00",9.2,9.1,1.4,0.0,0,1002.8,2,3,"",99
"2021-01-28 02:10:00",9.2,9.1,1.4,0.0,0,1002.8,2,3,"",99
"2021-01-28 02:11:00",9.2,9.1,1.4,0.0,0,1002.8,3,6,7.7,99
"2021-01-28 02:12:00",9.2,9.1,1.6,0.0,0,1002.8,1,2,"",99
"2021-01-28 02:13:00",9.2,9.1,1.6,0.0,0,1002.8,1,3,"",99
"2021-01-28 02:14:00",9.3,9.2,1.6,0.0,0,1002.8,1,1,"",99
"2021-01-28 02:15:00",9.3,9.2,1.6,0.0,0,1002.8,0,1,"",99
"2021-01-28 02:16:00",9.3,9.2,1.6,0.0,0,1002.8,0,1,"",99
"2021-01-28 02:17:00",9.3,9.2,1.6,0.0,0,1002.7,1,2,"",99
"2021-01-28 02:18:00",9.3,9.2,1.8,0.0,0,1002.8,1,2,"",99
"2021-01-28 02:19:00",9.3,9.2,1.8,0.0,0,1002.7,1,2,"",99
"2021-01-28 02:20:00",9.3,9.2,1.8,0.0,0,1002.7,2,3,"",99
"2021-01-28 02:21:00",9.3,9.2,1.8,0.0,0,1002.7,1,2,"",99
"2021-01-28 02:22:00",9.3,9.2,1.8,0.0,0,1002.6,2,2,"",99
"2021-01-28 02:23:00",9.3,9.2,1.8,0.0,0,1002.6,2,3,"",99
"2021-01-28 02:24:00",9.3,9.2,1.8,0.0,0,1002.5,2,5,8.2,99
"2021-01-28 02:25:00",9.3,9.2,2.0,0.0,0,1002.5,2,3,"",99
"2021-01-28 02:26:00",9.3,9.2,2.0,0.0,0,1002.5,2,3,"",99
"2021-01-28 02:27:00",9.3,9.2,2.0,0.0,0,1002.5,2,4,8.6,99
"2021-01-28 02:28:00",9.3,9.2,2.0,0.0,0,1002.5,2,3,"",99
"2021-01-28 02:29:00",9.3,9.2,2.0,0.0,0,1002.4,2,4,8.6,99
"2021-01-28 02:30:00",9.4,9.3,2.0,0.0,0,1002.4,2,3,"",99
"2021-01-28 02:31:00",9.4,9.3,2.0,0.0,0,1002.3,1,2,"",99
"2021-01-28 02:32:00",9.4,9.3,2.0,0.0,0,1002.3,1,2,"",99
"2021-01-28 02:33:00",9.4,9.3,2.0,0.0,0,1002.3,1,2,"",99
"2021-01-28 02:34:00",9.4,9.3,2.2,0.0,0,1002.3,1,2,"",99
"2021-01-28 02:35:00",9.4,9.3,2.2,0.0,0,1002.2,2,5,8.3,99
"2021-01-28 02:36:00",9.4,9.3,2.2,0.0,0,1002.2,2,3,"",99
"2021-01-28 02:37:00",9.4,9.3,2.2,0.0,0,1002.2,1,4,8.7,99
"2021-01-28 02:38:00",9.4,9.3,2.2,0.0,0,1002.2,2,3,"",99
"2021-01-28 02:39:00",9.4,9.3,2.2,0.0,0,1002.1,2,3,"",99
"2021-01-28 02:40:00",9.4,9.3,2.4,0.0,0,1002.1,1,2,"",99
"2021-01-28 02:41:00",9.4,9.3,2.4,0.0,0,1002.1,1,2,"",99
"2021-01-28 02:42:00",9.4,9.3,2.4,0.0,0,1002.0,1,2,"",99
"2021-01-28 02:43:00",9.4,9.3,2.4,0.0,0,1002.0,1,2,"",99
"2021-01-28 02:44:00",9.4,9.3,2.4,0.0,0,1002.0,1,2,"",99
"2021-01-28 02:45:00",9.4,9.3,2.4,0.0,0,1002.0,1,2,"",99
"2021-01-28 02:46:00",9.4,9.3,2.4,0.0,0,1002.0,2,3,"",99
"2021-01-28 02:47:00",9.4,9.3,2.6,0.0,0,1002.0,1,3,"",99
"2021-01-28 02:48:00",9.4,9.3,2.6,0.0,0,1001.9,1,2,"",99
"2021-01-28 02:49:00",9.4,9.3,2.6,0.0,0,1001.9,2,2,"",99
"2021-01-28 02:50:00",9.4,9.3,2.6,0.0,0,1001.8,2,2,"",99
"2021-01-28 02:51:00",9.4,9.3,2.6,0.0,0,1001.8,1,3,"",99
"2021-01-28 02:52:00",9.4,9.3,2.8,0.0,0,1001.8,1,3,"",99
"2021-01-28 02:53:00",9.4,9.3,2.8,0.0,0,1001.8,1,2,"",99
"2021-01-28 02:54:00",9.4,9.3,2.8,0.0,0,1001.8,1,2,"",99
"2021-01-28 02:55:00",9.4,9.3,2.8,0.0,0,1001.7,2,3,"",99
"2021-01-28 02:56:00",9.4,9.3,2.8,0.0,0,1001.7,1,3,"",99
"2021-01-28 02:57:00",9.4,9.3,3.0,0.0,0,1001.7,2,3,"",99
"2021-01-28 02:58:00",9.4,9.3,3.0,0.0,0,1001.7,2,3,"",99
"2021-01-28 02:59:00",9.4,9.3,3.0,0.0,0,1001.7,2,2,"",99
"2021-01-28 03:00:00",9.4,9.3,3.0,0.0,0,1001.6,1,3,"",99
"2021-01-28 03:01:00",9.4,9.3,3.2,0.0,0,1001.5,1,3,"",99
"2021-01-28 03:02:00",9.4,9.3,3.2,0.0,0,1001.5,1,3,"",99
"2021-01-28 03:03:00",9.4,9.3,3.2,0.0,0,1001.6,1,2,"",99
"2021-01-28 03:04:00",9.4,9.3,3.2,0.0,0,1001.5,2,3,"",99
"2021-01-28 03:05:00",9.4,9.3,3.2,0.0,0,1001.5,1,2,"",99
"2021-01-28 03:06:00",9.4,9.3,3.2,0.0,0,1001.4,2,2,"",99
"2021-01-28 03:07:00",9.4,9.3,3.4,0.0,0,1001.3,2,3,"",99
"2021-01-28 03:08:00",9.4,9.3,3.4,0.0,0,1001.3,2,3,"",99
"2021-01-28 03:09:00",9.3,9.2,3.4,0.0,0,1001.3,1,3,"",99
"2021-01-28 03:10:00",9.4,9.3,3.4,0.0,0,1001.3,2,2,"",99
"2021-01-28 03:11:00",9.4,9.3,3.4,0.0,0,1001.3,1,2,"",99
"2021-01-28 03:12:00",9.4,9.3,3.4,0.0,0,1001.3,2,3,"",99
"2021-01-28 03:13:00",9.4,9.3,3.6,0.0,0,1001.2,2,3,"",99
"2021-01-28 03:14:00",9.4,9.3,3.6,0.0,0,1001.3,2,3,"",99
"2021-01-28 03:15:00",9.4,9.3,3.6,0.0,0,1001.2,2,3,"",99
"2021-01-28 03:16:00",9.4,9.3,3.6,0.0,0,1001.2,2,3,"",99
"2021-01-28 03:17:00",9.4,9.3,3.6,0.0,0,1001.2,1,2,"",99
"2021-01-28 03:18:00",9.4,9.3,3.6,0.0,0,1001.2,2,3,"",99
"2021-01-28 03:19:00",9.4,9.3,3.6,0.0,0,1001.2,2,3,"",99
"2021-01-28 03:20:00",9.4,9.3,3.6,0.0,0,1001.1,2,3,"",99
"2021-01-28 03:21:00",9.4,9.3,3.6,0.0,0,1001.1,2,3,"",99
"2021-01-28 03:22:00",9.4,9.3,3.6,0.0,0,1001.1,2,3,"",99
"2021-01-28 03:23:00",9.4,9.3,3.6,0.0,0,1001.0,1,3,"",99
"2021-01-28 03:24:00",9.4,9.3,3.6,0.0,0,1001.1,1,2,"",99
"2021-01-28 03:25:00",9.4,9.3,3.6,0.0,0,1001.1,1,2,"",99
"2021-01-28 03:26:00",9.4,9.3,3.6,0.0,0,1001.1,2,4,8.7,99
"2021-01-28 03:27:00",9.4,9.3,3.6,0.0,0,1001.1,2,3,"",99
"2021-01-28 03:28:00",9.5,9.4,3.6,0.0,0,1001.1,1,2,"",99
"2021-01-28 03:29:00",9.4,9.3,3.6,0.0,0,1001.1,1,2,"",99
"2021-01-28 03:30:00",9.5,9.4,3.6,0.0,0,1001.1,1,2,"",99
"2021-01-28 03:31:00",9.4,9.3,3.8,0.0,0,1001.2,1,1,"",99
"2021-01-28 03:32:00",9.4,9.3,3.8,0.0,0,1001.1,2,3,"",99
"2021-01-28 03:33:00",9.4,9.3,3.8,0.0,0,1001.1,1,2,"",99
"2021-01-28 03:34:00",9.5,9.4,3.8,0.0,0,1001.1,2,3,"",99
"2021-01-28 03:35:00",9.5,9.4,3.8,0.0,0,1001.1,1,2,"",99
"2021-01-28 03:36:00",9.5,9.4,3.8,0.0,0,1001.1,2,3,"",99
"2021-01-28 03:37:00",9.5,9.4,3.8,0.0,0,1001.1,1,2,"",99
"2021-01-28 03:38:00",9.5,9.4,3.8,0.0,0,1001.1,2,3,"",99
"2021-01-28 03:39:00",9.5,9.4,3.8,0.0,0,1001.1,1,2,"",99
"2021-01-28 03:40:00",9.5,9.4,3.8,0.0,0,1001.1,2,5,8.4,99
"2021-01-28 03:41:00",9.5,9.4,3.8,0.0,0,1001.1,1,3,"",99
"2021-01-28 03:42:00",9.5,9.4,3.8,0.0,0,1001.1,1,3,"",99
"2021-01-28 03:43:00",9.6,9.5,3.8,0.0,0,1001.1,2,3,"",99
"2021-01-28 03:44:00",9.6,9.5,3.8,0.0,0,1000.9,2,3,"",99
"2021-01-28 03:45:00",9.5,9.4,3.8,0.0,0,1000.9,2,4,8.9,99
"2021-01-28 03:46:00",9.6,9.5,3.8,0.0,0,1000.8,1,3,"",99
"2021-01-28 03:47:00",9.6,9.5,3.8,0.0,0,1000.8,1,2,"",99
"2021-01-28 03:48:00",9.6,9.5,3.8,0.0,0,1000.7,2,6,8.2,99
"2021-01-28 03:49:00",9.6,9.5,4.0,0.0,0,1000.7,3,5,8.5,99
"2021-01-28 03:50:00",9.6,9.5,4.0,0.0,0,1000.5,2,5,8.5,99
"2021-01-28 03:51:00",9.7,9.6,4.0,0.0,0,1000.4,1,3,"",99
"2021-01-28 03:52:00",9.7,9.6,4.0,0.0,0,1000.4,1,2,"",99
"2021-01-28 03:53:00",9.7,9.6,4.0,0.0,0,1000.4,1,4,9.0,99
"2021-01-28 03:54:00",9.7,9.6,4.0,0.0,0,1000.4,1,2,"",99
"2021-01-28 03:55:00",9.7,9.6,4.0,0.0,0,1000.5,1,2,"",99
"2021-01-28 03:56:00",9.7,9.6,4.0,0.0,0,1000.5,1,2,"",99
"2021-01-28 03:57:00",9.7,9.6,4.0,0.0,0,1000.6,1,2,"",99
"2021-01-28 03:58:00",9.7,9.6,4.0,0.0,0,1000.7,1,3,"",99
"2021-01-28 03:59:00",9.8,9.7,4.0,0.0,0,1000.6,1,2,"",99
"2021-01-28 04:00:00",9.8,9.7,4.0,0.0,0,1000.6,1,2,"",99
"2021-01-28 04:01:00",9.8,9.7,4.0,0.0,0,1000.6,1,2,"",99
"2021-01-28 04:02:00",9.8,9.7,4.0,0.0,0,1000.6,1,2,"",99
"2021-01-28 04:03:00",9.8,9.7,4.0,0.0,0,1000.5,1,2,"",99
"2021-01-28 04:04:00",9.8,9.7,4.0,0.0,0,1000.5,1,2,"",99
"2021-01-28 04:05:00",9.7,9.6,4.0,0.0,0,1000.4,1,2,"",99
"2021-01-28 04:06:00",9.8,9.7,4.0,0.0,0,1000.4,0,2,"",99
"2021-01-28 04:07:00",9.8,9.7,4.0,0.0,0,1000.4,1,3,"",99
"2021-01-28 04:08:00",9.7,9.6,4.0,0.0,0,1000.4,2,3,"",99
"2021-01-28 04:09:00",9.8,9.7,4.0,0.0,0,1000.4,1,2,"",99
"2021-01-28 04:10:00",9.8,9.7,4.0,0.0,0,1000.5,1,2,"",99
"2021-01-28 04:11:00",9.8,9.7,4.0,0.0,0,1000.5,2,4,9.1,99
"2021-01-28 04:12:00",9.8,9.7,4.0,0.0,0,1000.5,1,3,"",99
"2021-01-28 04:13:00",9.8,9.7,4.0,0.0,0,1000.5,1,3,"",99
"2021-01-28 04:14:00",9.8,9.7,4.0,0.0,0,1000.4,1,2,"",99
"2021-01-28 04:15:00",9.8,9.7,4.0,0.0,0,1000.5,2,3,"",99
"2021-01-28 04:16:00",9.8,9.7,4.0,0.0,0,1000.4,2,3,"",99
"2021-01-28 04:17:00",9.8,9.7,4.0,0.0,0,1000.4,1,2,"",99
"2021-01-28 04:18:00",9.8,9.7,4.0,0.0,0,1000.4,1,1,"",99
"2021-01-28 04:19:00",9.8,9.7,4.0,0.0,0,1000.4,1,3,"",99
"2021-01-28 04:20:00",9.8,9.7,4.0,0.0,0,1000.4,1,3,"",99
"2021-01-28 04:21:00",9.8,9.7,4.0,0.0,0,1000.3,1,3,"",99
"2021-01-28 04:22:00",9.8,9.7,4.0,0.0,0,1000.4,1,2,"",99
"2021-01-28 04:23:00",9.8,9.7,4.0,0.0,0,1000.4,1,2,"",99
"2021-01-28 04:24:00",9.8,9.7,4.0,0.0,0,1000.4,1,3,"",99
"2021-01-28 04:25:00",9.8,9.7,4.0,0.0,0,1000.4,2,3,"",99
"2021-01-28 04:26:00",9.8,9.7,4.0,0.0,0,1000.5,1,2,"",99
"2021-01-28 04:27:00",9.8,9.7,4.0,0.0,0,1000.4,1,3,"",99
"2021-01-28 04:28:00",9.8,9.7,4.0,0.0,0,1000.4,2,3,"",99
"2021-01-28 04:29:00",9.8,9.7,4.0,0.0,0,1000.4,1,2,"",99
"2021-01-28 04:30:00",9.8,9.7,4.0,0.0,0,1000.3,2,3,"",99
"2021-01-28 04:31:00",9.8,9.7,4.0,0.0,0,1000.3,1,2,"",99
"2021-01-28 04:32:00",9.8,9.7,4.0,0.0,0,1000.3,1,4,9.1,99
"2021-01-28 04:33:00",9.8,9.7,4.0,0.0,0,1000.3,0,3,"",99
"2021-01-28 04:34:00",9.8,9.7,4.0,0.0,0,1000.3,0,1,"",99
"2021-01-28 04:35:00",9.8,9.7,4.0,0.0,0,1000.3,1,1,"",99
"2021-01-28 04:36:00",9.8,9.7,4.0,0.0,0,1000.3,1,3,"",99
"2021-01-28 04:37:00",9.8,9.7,4.0,0.0,0,1000.3,1,3,"",99
"2021-01-28 04:38:00",9.8,9.7,4.0,0.0,0,1000.3,0,2,"",99
"2021-01-28 04:39:00",9.8,9.7,4.0,0.0,0,1000.3,1,2,"",99
"2021-01-28 04:40:00",9.8,9.7,4.0,0.0,0,1000.4,0,1,"",99
"2021-01-28 04:41:00",9.8,9.7,4.0,0.0,0,1000.3,1,2,"",99
"2021-01-28 04:42:00",9.8,9.7,4.0,0.0,0,1000.3,1,3,"",99
"2021-01-28 04:43:00",9.8,9.7,4.0,0.0,0,1000.3,0,1,"",99
"2021-01-28 04:44:00",9.8,9.7,4.0,0.0,0,1000.2,1,4,9.1,99
"2021-01-28 04:45:00",9.8,9.7,4.0,0.0,0,1000.2,2,3,"",99
"2021-01-28 04:46:00",9.8,9.7,4.0,0.0,0,1000.2,3,5,8.8,99
"2021-01-28 04:47:00",9.8,9.7,4.0,0.0,0,1000.1,2,3,"",99
"2021-01-28 04:48:00",9.8,9.7,4.0,0.0,0,1000.2,1,2,"",99
"2021-01-28 04:49:00",9.9,9.7,4.0,0.0,0,1000.1,0,2,"",99
"2021-01-28 04:50:00",9.9,9.7,4.0,0.0,0,1000.1,1,2,"",99
"2021-01-28 04:51:00",9.9,9.7,4.0,0.0,0,1000.2,2,3,"",99
"2021-01-28 04:52:00",9.9,9.7,4.0,0.0,0,1000.1,1,2,"",99
"2021-01-28 04:53:00",9.9,9.7,4.0,0.0,0,1000.1,1,3,"",99
"2021-01-28 04:54:00",9.9,9.7,4.0,0.0,0,1000.0,0,1,"",99
"2021-01-28 04:55:00",9.9,9.7,4.0,0.0,0,1000.0,1,2,"",99
"2021-01-28 04:56:00",9.9,9.7,4.0,0.0,0,999.9,2,4,9.2,99
"2021-01-28 04:57:00",9.9,9.7,4.0,0.0,0,999.8,2,4,9.2,99
"2021-01-28 04:58:00",9.9,9.7,4.0,0.0,0,999.8,2,3,"",99
"2021-01-28 04:59:00",9.9,9.7,4.0,0.0,0,999.8,2,3,"",99
"2021-01-28 05:00:00",9.9,9.7,4.0,0.0,0,999.9,1,2,"",99
"2021-01-28 05:01:00",9.9,9.7,4.0,0.0,0,999.9,1,1,"",99
"2021-01-28 05:02:00",9.9,9.7,4.0,0.0,0,999.9,0,1,"",99
"2021-01-28 05:03:00",9.9,9.7,4.0,0.0,0,999.9,1,2,"",99
"2021-01-28 05:04:00",9.9,9.7,4.0,0.0,0,1000.0,1,2,"",99
"2021-01-28 05:05:00",9.9,9.7,4.0,0.0,0,1000.0,1,2,"",99
"2021-01-28 05:06:00",9.9,9.7,4.0,0.0,0,1000.0,1,2,"",99
"2021-01-28 05:07:00",9.9,9.7,4.0,0.0,0,1000.0,2,4,9.2,99
"2021-01-28 05:08:00",9.9,9.7,4.0,0.0,0,1000.0,1,2,"",99
"2021-01-28 05:09:00",9.9,9.7,4.0,0.0,0,1000.0,1,2,"",99
"2021-01-28 05:10:00",9.9,9.7,4.0,0.0,0,1000.0,1,2,"",99
"2021-01-28 05:11:00",9.9,9.7,4.0,0.0,0,1000.0,1,2,"",99
"2021-01-28 05:12:00",9.9,9.7,4.0,0.0,0,1000.0,1,3,"",99
"2021-01-28 05:13:00",10.0,9.8,4.0,0.0,0,1000.0,2,3,"",99
"2021-01-28 05:14:00",10.0,9.8,4.0,0.0,0,999.9,2,3,"",99
"2021-01-28 05:15:00",9.9,9.7,4.0,0.0,0,999.9,2,3,"",99
"2021-01-28 05:16:00",10.0,9.8,4.0,0.0,0,999.8,1,2,"",99
"2021-01-28 05:17:00",10.0,9.8,4.0,0.0,0,999.8,1,2,"",99
"2021-01-28 05:18:00",10.0,9.8,4.0,0.0,0,999.8,2,3,"",99
"2021-01-28 05:19:00",10.0,9.8,4.0,0.0,0,999.8,1,3,"",99
"2021-01-28 05:20:00",10.0,9.8,4.0,0.0,0,999.8,1,2,"",99
"2021-01-28 05:21:00",10.1,9.9,4.0,0.0,0,999.8,1,2,"",99
"2021-01-28 05:22:00",10.1,9.9,4.0,0.0,0,999.8,2,3,"",99
"2021-01-28 05:23:00",10.1,9.9,4.0,0.0,0,999.8,1,2,"",99
"2021-01-28 05:24:00",10.0,9.8,4.0,0.0,0,999.8,1,2,"",99
"2021-01-28 05:25:00",10.1,9.9,4.0,0.0,0,999.8,2,4,"",99
"2021-01-28 05:26:00",10.1,9.9,4.0,0.0,0,999.8,2,4,"",99
"2021-01-28 05:27:00",10.1,9.9,4.0,0.0,0,999.8,2,4,9.4,99
"2021-01-28 05:28:00",10.1,9.9,4.0,0.0,0,999.7,2,3,"",99
"2021-01-28 05:29:00",10.1,9.9,4.0,0.0,0,999.7,1,2,"",99
"2021-01-28 05:30:00",10.1,9.9,4.0,0.0,0,999.6,1,3,"",99
"2021-01-28 05:31:00",10.1,9.9,4.0,0.0,0,999.7,0,1,"",99
"2021-01-28 05:32:00",10.1,9.9,4.0,0.0,0,999.6,1,2,"",99
"2021-01-28 05:33:00",10.1,9.9,4.0,0.0,0,999.7,1,2,"",99
"2021-01-28 05:34:00",10.1,9.9,4.0,0.0,0,999.7,2,6,"",99
"2021-01-28 05:35:00",10.1,9.9,4.0,0.0,0,999.7,2,3,"",99
"2021-01-28 05:36:00",10.1,9.9,4.0,0.0,0,999.7,2,3,"",99
"2021-01-28 05:37:00",10.1,9.9,4.0,0.0,0,999.6,3,5,"",99
"2021-01-28 05:38:00",10.1,9.9,4.0,0.0,0,999.7,0,2,"",99
"2021-01-28 05:39:00",10.2,10.0,4.0,0.0,0,999.6,1,2,"",99
"2021-01-28 05:40:00",10.2,10.0,4.0,0.0,0,999.6,2,4,"",99
"2021-01-28 05:41:00",10.2,10.0,4.0,0.0,0,999.5,2,3,"",99
"2021-01-28 05:42:00",10.2,10.0,4.0,0.0,0,999.5,1,4,"",99
"2021-01-28 05:43:00",10.2,10.0,4.0,0.0,0,999.6,2,5,"",99
"2021-01-28 05:44:00",10.2,10.0,4.0,0.0,0,999.7,0,1,"",99
"2021-01-28 05:45:00",10.2,10.0,4.0,0.0,0,999.8,0,1,"",99
"2021-01-28 05:46:00",10.2,10.0,4.0,0.0,0,999.8,0,1,"",99
"2021-01-28 05:47:00",10.2,10.0,4.0,0.0,0,999.8,1,2,"",99
"2021-01-28 05:48:00",10.2,10.0,4.0,0.0,0,999.7,1,2,"",99
"2021-01-28 05:49:00",10.2,10.0,4.0,0.0,0,999.7,2,2,"",99
"2021-01-28 05:50:00",10.2,10.0,4.0,0.0,0,999.7,1,2,"",99
"2021-01-28 05:51:00",10.2,10.0,4.0,0.0,0,999.8,0,1,"",99
"2021-01-28 05:52:00",10.2,10.0,4.0,0.0,0,999.8,1,3,"",99
"2021-01-28 05:53:00",10.2,10.0,4.0,0.0,0,999.8,1,2,"",99
"2021-01-28 05:54:00",10.2,10.0,4.0,0.0,0,999.8,0,2,"",99
"2021-01-28 05:55:00",10.2,10.0,4.0,0.0,0,999.8,1,2,"",99
"2021-01-28 05:56:00",10.2,10.0,4.0,0.0,0,999.7,0,1,"",99
"2021-01-28 05:57:00",10.2,10.0,4.0,0.0,0,999.7,2,4,"",99
"2021-01-28 05:58:00",10.2,10.0,4.0,0.0,0,999.7,1,2,"",99
"2021-01-28 05:59:00",10.2,10.0,4.0,0.0,0,999.7,1,2,"",99
"2021-01-28 06:00:00",10.2,10.0,4.0,0.0,0,999.8,3,6,"",99
"2021-01-28 06:01:00",10.2,10.0,4.0,0.0,0,999.7,1,3,"",99
"2021-01-28 06:02:00",10.3,10.1,4.0,0.0,0,999.7,2,3,"",99
"2021-01-28 06:03:00",10.3,10.1,4.0,0.0,0,999.7,1,3,"",99
"2021-01-28 06:04:00",10.3,10.1,4.0,0.0,0,999.7,2,4,"",99
"2021-01-28 06:05:00",10.2,10.0,4.0,0.0,0,999.7,2,3,"",99
"2021-01-28 06:06:00",10.2,10.0,4.0,0.0,0,999.7,1,2,"",99
"2021-01-28 06:07:00",10.3,10.1,4.0,0.0,0,999.7,2,3,"",99
"2021-01-28 06:08:00",10.3,10.1,4.0,0.0,0,999.7,1,3,"",99
"2021-01-28 06:09:00",10.3,10.1,4.0,0.0,0,999.7,2,4,"",99
"2021-01-28 06:10:00",10.3,10.1,4.0,0.0,0,999.7,1,3,"",99
"2021-01-28 06:11:00",10.3,10.1,4.0,0.0,0,999.7,2,5,"",99
"2021-01-28 06:12:00",10.3,10.1,4.0,0.0,0,999.7,1,1,"",99
"2021-01-28 06:13:00",10.3,10.1,4.0,0.0,0,999.7,1,1,"",99
"2021-01-28 06:14:00",10.3,10.1,4.0,0.0,0,999.7,1,2,"",99
"2021-01-28 06:15:00",10.3,10.1,4.0,0.0,0,999.6,1,2,"",99
"2021-01-28 06:16:00",10.3,10.1,4.0,0.0,0,999.7,2,8,"",99
"2021-01-28 06:17:00",10.3,10.1,4.0,0.0,0,999.7,3,4,"",99
"2021-01-28 06:18:00",10.3,10.1,4.0,0.0,0,999.7,2,4,"",99
"2021-01-28 06:19:00",10.3,10.1,4.0,0.0,0,999.7,1,2,"",99
"2021-01-28 06:20:00",10.3,10.1,4.0,0.0,0,999.7,1,3,"",99
"2021-01-28 06:21:00",10.3,10.1,4.0,0.0,0,999.6,2,4,"",99
"2021-01-28 06:22:00",10.4,10.2,4.0,0.0,0,999.6,1,2,"",99
"2021-01-28 06:23:00",10.4,10.2,4.0,0.0,0,999.6,0,1,"",99
"2021-01-28 06:24:00",10.4,10.2,4.0,0.0,0,999.6,1,2,"",99
"2021-01-28 06:25:00",10.4,10.2,4.0,0.0,0,999.6,2,3,"",99
"2021-01-28 06:26:00",10.4,10.2,4.0,0.0,0,999.5,1,2,"",99
"2021-01-28 06:27:00",10.4,10.2,4.0,0.0,0,999.5,1,2,"",99
"2021-01-28 06:28:00",10.4,10.2,4.0,0.0,0,999.5,1,2,"",99
"2021-01-28 06:29:00",10.4,10.2,4.0,0.0,0,999.4,0,1,"",99
"2021-01-28 06:30:00",10.4,10.2,4.0,0.0,0,999.4,2,3,"",99
"2021-01-28 06:31:00",10.4,10.2,4.0,0.0,0,999.4,1,2,"",99
"2021-01-28 06:32:00",10.4,10.2,4.0,0.0,0,999.5,1,2,"",99
"2021-01-28 06:33:00",10.4,10.2,4.0,0.0,0,999.5,1,2,"",99
"2021-01-28 06:34:00",10.4,10.2,4.0,0.0,0,999.4,0,2,"",99
"2021-01-28 06:35:00",10.4,10.2,4.0,0.0,0,999.4,3,6,"",99
"2021-01-28 06:36:00",10.4,10.2,4.0,0.0,0,999.4,2,4,"",99
"2021-01-28 06:37:00",10.4,10.2,4.0,0.0,0,999.4,1,3,"",99
"2021-01-28 06:38:00",10.4,10.2,4.0,0.0,0,999.4,1,2,"",99
"2021-01-28 06:39:00",10.4,10.2,4.0,0.0,0,999.4,2,2,"",99
"2021-01-28 06:40:00",10.4,10.2,4.0,0.0,0,999.4,1,3,"",99
"2021-01-28 06:41:00",10.4,10.2,4.0,0.0,0,999.5,1,2,"",99
"2021-01-28 06:42:00",10.4,10.2,4.0,0.0,0,999.4,2,3,"",99
"2021-01-28 06:43:00",10.4,10.2,4.0,0.0,0,999.3,1,2,"",99
"2021-01-28 06:44:00",10.4,10.2,4.0,0.0,0,999.4,1,2,"",99
"2021-01-28 06:45:00",10.4,10.2,4.0,0.0,0,999.4,2,5,"",99
"2021-01-28 06:46:00",10.4,10.2,4.0,0.0,0,999.4,1,3,"",99
"2021-01-28 06:47:00",10.5,10.3,4.0,0.0,0,999.4,2,4,"",99
"2021-01-28 06:48:00",10.5,10.3,4.0,0.0,0,999.4,1,2,"",99
"2021-01-28 06:49:00",10.5,10.3,4.0,0.0,0,999.4,1,3,"",99
"2021-01-28 06:50:00",10.5,10.3,4.0,0.0,0,999.4,2,3,"",99
"2021-01-28 06:51:00",10.5,10.3,4.0,0.0,0,999.4,3,4,"",99
"2021-01-28 06:52:00",10.5,10.3,4.0,0.0,0,999.4,2,3,"",99
"2021-01-28 06:53:00",10.5,10.3,4.0,0.0,0,999.4,1,2,"",99
"2021-01-28 06:54:00",10.5,10.3,4.0,0.0,0,999.4,3,5,"",99
"2021-01-28 06:55:00",10.5,10.3,4.0,0.0,0,999.4,4,7,"",99
"2021-01-28 06:56:00",10.5,10.3,4.0,0.0,0,999.3,2,5,"",99